www.pogodaiklimat.ru

Погода и климат >> Архив погоды >> Турция >> Finike


ПОГОДА в Finike

  • Прогноз погоды в Finike
  • Монитор погоды в Finike
  • Климат города

АРХИВ ПОГОДЫ в Finike

Время (UTC), дата Ветер
(напр.,м/с)
 
Видим.   Явления Облачность Т
(С)
Тd
(С)
f
(%)
Тe
(С)
Тes
(С)
Комфортность P
(гПа)
Po
(гПа)
Тmin
(С)
Tmax
(С)
R
(мм)
R24
(мм)
S
(см)
16 20.06 С 2 20 км 4/4 1000 м
[Cu hum]
+25.8 +17.0 58 +30 +30 душно 1007.9 1007.7
17 20.06 СВ 1 20 км 3/3 1000 м
[Cu hum]
+24.4 +16.5 61 +28 +28 душно 1008.1 1007.9
18 20.06 СВ 1
{9}
20 км 3/3 1080 м
[Cu hum]
+23.5 +16.6 65 +27 +27 душно 1008.5 1008.3 +29.5
06 21.06 С 1
{5}
20 км 1/1 1200 м
[Cu hum]
+28.6 +10.2 32 +29 +37 жарко 1007.8 1007.6 +21.2
07 21.06 ЮВ 2 20 км 3/3 1000 м
[Cu med, cong]
+27.4 +12.9 41 +29 +39 жарко 1007.8 1007.6
08 21.06 ЮЗ 2 20 км 3/3 1000 м
[Cu med, cong]
+29.6 +10.1 30 +30 +42 жарко 1007.9 1007.7
09 21.06 Ю 4
{6}
20 км 3/3 1080 м
[Cu med, cong]
+28.4 +17.0 50 +32 +41 душно 1008.3 1008.1
10 21.06 Ю 3 20 км 3/3 1000 м
[Cu med, cong]
+30.5 +9.8 28 +30 +44 жарко 1008.4 1008.2
11 21.06 ЮЗ 3 20 км 4/4 1000 м
[Cu med, cong]
+29.9 +10.3 30 +30 +41 жарко 1008.5 1008.3
12 21.06 Ю 4
{8}
20 км 5/5 1000 м
[Cu med, cong]
+28.5 +11.0 34 +29 +35 жарко 1008.4 1008.2
13 21.06 Ю 4 20 км 5/5 1000 м
[Cu med, cong]
+29.8 +12.6 35 +31 +35 жарко 1008.3 1008.1
14 21.06 С 2 20 км 4/4 1000 м
[Cu med, cong]
+31.1 +11.4 30 +31 +37 жарко 1008.1 1007.9
15 21.06 СВ 1
{8}
20 км 4/4 1000 м
[Cu med, cong]
+29.8 +11.7 33 +30 +33 жарко 1008.1 1007.9
16 21.06 С 1 20 км 5/3 1000 м
[Cu hum Ac trans]
+28.1 +13.5 41 +30 +31 жарко 1008.3 1008.1
17 21.06 СВ 1 20 км 5/3 1000 м
[Cu hum Ac trans]
+27.2 +13.5 43 +29 +29 жарко 1008.8 1008.6
18 21.06 ЮВ 1
{8}
20 км 6/3 1080 м
[Cu hum Ac trans]
+25.7 +15.7 54 +29 +29 душно 1009.1 1008.9 +31.7
06 22.06 Ю 1
{4}
20 км ясно +26.3 +13.0 44 +28 +38 жарко 1011.1 1010.9 +21.3
07 22.06 Ю 2 20 км ясно +27.8 +13.6 42 +30 +44 жарко 1011.0 1010.8
08 22.06 Ю 4 20 км ясно +29.1 +14.0 40 +31 +42 жарко 1011.2 1011.0
09 22.06 ЮЗ 3
{6}
20 км 1/1 1080 м
[Cu hum]
+30.8 +11.6 31 +31 +48 жарко 1011.0 1010.8
10 22.06 Ю 4 20 км 1/1 1000 м
[Cu hum]
+30.5 +12.8 34 +32 +46 жарко 1011.0 1010.8
11 22.06 С 1 20 км 1/1 1000 м
[Cu hum]
+32.3 +13.9 33 +34 +55 опасность
солнечного
удара
1010.7 1010.5
12 22.06 ЮЗ 2
{7}
20 км 1/1 1080 м
[Cu hum]
+32.4 +12.0 29 +33 +49 жарко 1010.6 1010.4
13 22.06 ЮЗ 3 20 км 1/1 1000 м
[Cu hum]
+33.0 +11.4 27 +33 +42 жарко 1010.4 1010.2
14 22.06 ЮЗ 1 20 км 1/1 1000 м
[Cu hum]
+32.8 +10.7 26 +32 +41 жарко 1010.2 1010.0
15 22.06 С 1
{8}
20 км 1/1 1080 м
[Cu hum]
+31.8 +10.9 28 +32 +36 жарко 1010.4 1010.2
16 22.06 СВ 1 20 км ясно +29.0 +12.3 36 +30 +32 жарко 1010.9 1010.7
17 22.06 Ю 1 20 км ясно +27.2 +13.8 44 +29 +29 жарко 1011.1 1010.9
18 22.06 ЮВ 1
{8}
20 км ясно +26.4 +12.7 43 +28 +28 жарко 1011.0 1010.8 +33.3
06 23.06 ЮВ 2
{4}
20 км ясно +28.6 +14.7 43 +31 +40 жарко 1012.0 1011.8 +23.0
07 23.06 ЮВ 2 20 км ясно +28.7 +13.7 40 +31 +44 жарко 1012.2 1012.0
08 23.06 Ю 2 20 км ясно +31.6 +14.2 35 +33 +50 жарко 1012.2 1012.0
09 23.06 Ю 3
{4}
20 км ясно +33.3 +11.1 26 +33 +51 опасность
солнечного
удара
1012.1 1011.9
10 23.06 Ю 3 20 км ясно +33.9 +10.4 24 +33 +51 опасность
солнечного
удара
1012.1 1011.9
11 23.06 Ю 3 20 км ясно +34.2 +9.4 22 +33 +49 жарко 1011.8 1011.6
12 23.06 Ю 4
{7}
20 км 1/1 1050 м
[Cu hum]
+33.7 +11.4 26 +34 +45 очень
жарко
1011.3 1011.1
13 23.06 ЮЗ 5 20 км 1/1 1000 м
[Cu hum]
+33.6 +11.9 27 +34 +40 очень
жарко
1010.7 1010.5
14 23.06 ЮЗ 3 20 км 1/1 1000 м
[Cu hum]
+34.5 +11.5 25 +34 +40 очень
жарко
1010.1 1009.9
15 23.06 ЮЗ 2
{9}
20 км ясно +34.1 +12.4 27 +34 +39 очень
жарко
1009.8 1009.6
16 23.06 СЗ 2 20 км ясно +32.4 +12.5 30 +33 +34 жарко 1010.1 1009.9
17 23.06 С 1 20 км ясно +30.0 +13.2 36 +31 +31 жарко 1010.4 1010.2
18 23.06 Ю 1
{9}
20 км ясно +28.2 +13.6 41 +30 +30 жарко 1010.6 1010.4 +35.0
06 24.06 ЮВ 1
{2}
20 км ясно +28.3 +16.6 49 +32 +42 душно 1010.0 1009.8 +22.7
07 24.06 ЮВ 1 20 км ясно +31.1 +14.2 36 +33 +48 душно 1009.6 1009.4
08 24.06 ЮВ 2 20 км ясно +32.3 +14.3 34 +34 +51 опасность
солнечного
удара
1009.7 1009.5
09 24.06 Ю 3
{6}
20 км ясно +33.8 +13.2 29 +35 +53 опасность
солнечного
удара
1009.9 1009.7
10 24.06 Ю 3 20 км ясно +36.1 +11.6 23 +36 +55 опасность
солнечного
удара
1009.6 1009.4
11 24.06 Ю 3 20 км ясно +36.1 +12.9 25 +36 +53 опасность
солнечного
удара
1009.4 1009.2
12 24.06 Ю 3
{7}
20 км ясно +35.3 +12.8 26 +36 +49 очень
жарко
1008.7 1008.5
13 24.06 ЮЗ 4 20 км ясно +35.0 +11.4 24 +35 +44 очень
жарко
1008.3 1008.1
14 24.06 ЮЗ 3 20 км ясно +36.4 +11.2 22 +36 +43 очень
жарко
1007.9 1007.7
15 24.06 ЮЗ 3
{8}
20 км ясно +35.8 +11.4 23 +35 +39 очень
жарко
1007.8 1007.6
16 24.06 С 1 20 км ясно +33.2 +13.2 30 +34 +35 очень
жарко
1008.1 1007.9
17 24.06 С 1 20 км ясно +31.3 +13.5 34 +33 +33 жарко 1008.7 1008.5
18 24.06 Ю 1
{8}
20 км ясно +29.9 +13.5 37 +31 +31 жарко 1008.9 1008.7 +36.6
06 25.06 В 1
{3}
20 км ясно +30.0 +15.2 41 +33 +43 душно 1008.9 1008.7 +23.7
07 25.06 ЮВ 1 20 км ясно +33.2 +15.1 34 +35 +51 опасность
солнечного
удара
1008.7 1008.5
08 25.06 Ю 2 20 км ясно +35.8 +12.6 25 +36 +54 опасность
солнечного
удара
1008.6 1008.4
09 25.06 ЮЗ 3
{4}
20 км ясно +36.1 +11.6 23 +36 +54 опасность
солнечного
удара
1008.6 1008.4
10 25.06 Ю 3 20 км ясно +36.1 +12.3 24 +36 +53 опасность
солнечного
удара
1008.5 1008.3
11 25.06 Ю 3 20 км ясно +36.3 +13.1 25 +37 +53 опасность
солнечного
удара
1008.1 1007.9
12 25.06 ЮВ 4
{6}
20 км 1/1 1050 м
[Cu hum]
+36.2 +12.4 24 +36 +47 очень
жарко
1007.5 1007.3
13 25.06 ЮЗ 4 20 км ясно +36.0 +13.4 26 +36 +45 очень
жарко
1007.5 1007.3
14 25.06 З 1 20 км ясно +37.7 +13.6 24 +38 +47 очень
жарко
1006.9 1006.7
15 25.06 ЮЗ 2
{8}
20 км ясно +36.1 +12.9 25 +36 +40 очень
жарко
1006.7 1006.5
06 26.06 ЮВ 1
{2}
20 км ясно +28.3 +16.2 48 +32 +42 душно 1006.9 1006.7 +24.0
07 26.06 ЮВ 1 20 км ясно +27.5 +20.9 67 +34 +49 очень
душно
1006.9 1006.7
08 26.06 В 2 20 км ясно +28.2 +22.3 70 +37 +55 опасность
солнечного
удара
1007.1 1006.9
09 26.06 ЮВ 2
{4}
20 км ясно +30.2 +21.1 58 +38 +58 опасность
солнечного
удара
1007.1 1006.9
10 26.06 ЮВ 2 20 км ясно +30.2 +20.5 56 +37 +60 опасность
солнечного
удара
1007.0 1006.8
11 26.06 В 1 20 км ясно +32.3 +19.6 47 +38 +61 опасность
солнечного
удара
1006.6 1006.4
12 26.06 Ю 3
{5}
20 км ясно +33.7 +18.2 40 +38 +52 опасность
солнечного
удара
1006.5 1006.3
13 26.06 Ю 3 20 км ясно +32.7 +16.5 38 +36 +46 очень
душно
1006.4 1006.2
14 26.06 Ю 2 20 км ясно +33.9 +15.3 33 +36 +45 душно 1006.1 1005.9
15 26.06 ЮВ 2
{5}
20 км ясно +30.1 +20.1 55 +37 +41 очень
душно
1006.1 1005.9
06 27.06 В 1
{2}
20 км ясно +27.0 +19.2 62 +32 +42 очень
душно
1007.4 1007.2 +22.2
07 27.06 В 1 20 км ясно +27.9 +20.0 62 +34 +49 очень
душно
1007.4 1007.2
08 27.06 ЮВ 1 20 км ясно +29.0 +20.3 59 +35 +55 опасность
солнечного
удара
1007.5 1007.3
09 27.06 ЮВ 2
{4}
20 км ясно +29.6 +21.1 60 +37 +57 опасность
солнечного
удара
1007.7 1007.5
10 27.06 ЮВ 3 20 км ясно +29.9 +22.7 65 +39 +58 опасность
солнечного
удара
1007.7 1007.5
11 27.06 Ю 2 20 км ясно +29.6 +22.9 67 +39 +59 опасность
солнечного
удара
1007.5 1007.3
12 27.06 В 2
{5}
20 км ясно +29.4 +21.7 63 +37 +56 опасность
солнечного
удара
1007.2 1007.0
13 27.06 С 2 20 км ясно +31.5 +22.6 59 +41 +55 опасность
перегрева
1006.9 1006.7
14 27.06 ЮВ 2 20 км ясно +29.7 +21.2 60 +37 +46 очень
душно
1006.9 1006.7
15 27.06 В 2
{4}
20 км ясно +28.4 +23.4 74 +38 +43 очень
душно
1006.6 1006.4

 

Местоположение метеостанции Finike (Турция): широта 36.30 долгота 30.15 высота над уровнем моря 2 м.

В архиве по умолчанию представлена погода в Finike за последнюю неделю. Архивные данные за месяц целиком и за предыдущие месяцы, начиная с января 2011 года, Вы можете получить, выбрав интересующий диапазон дат из раскрывающегося списка и нажав кнопку "Ввод!".

Внимание! Время в таблицах - всемирное. Для получения местного времени необходимо прибавить поправку, которая в Finike равна 2 ч.

Смотрите также архив погоды в соседних городах и на ближайших метеорологических станциях:

Погода в Kas (Турция) (46 км)
Погода в Antalya (Турция) (82 км)
Погода в Fethiye (Турция) (99 км)
Погода в Side (Турция) (122 км)
Погода в Dalaman (Турция) (130 км)
Погода в Burdur (Турция) (153 км)
Погода в Isparta (Турция) (165 км)
Погода в Alanya (Турция) (168 км)
Погода в Suleyman Demirel (Турция) (174 км)
Погода в Marmaris (Турция) (179 км)

Пояснения к столбцам:

Ветер - указаны скорость ветра в м/с - средняя за 10 мин, порывы в срок и между сроками (в фигурных скобках) и направление, откуда дует ветер: С - северный, СВ - северо-восточный, В - восточный, ЮВ - юго-восточный, Ю - южный, ЮЗ - юго-западный, З - западный, СЗ - северо-западный.
Видимость - горизонтальная дальность видимости в метрах или километрах. При видимости от 1 до 10 км при отсутствии осадков обычно наблюдается дымка, при ухудшении видимости до 1 км и менее - туман. В сухую погоду видимость может ухудшаться дымом, пылью или мглою.
Явления - указаны атмосферные явления, наблюдавшиеся в срок или в последний час перед сроком; фигурными скобками обозначены явления, наблюдавшиеся между сроками (за 1-3 часа до срока); квадратными скобками обозначены град или гололедные отложения с указанием их диаметра в мм.
Облачность - указаны через наклонную черту общая и нижняя облачность в баллах и высота нижней границы облаков в метрах; квадратными скобками обозначены формы облаков: Ci - перистые, Cs - перисто-слоистые, Cc - перисто-кучевые, Ac - высококучевые, As - высокослоистые, Sc - слоисто-кучевые, Ns - слоисто-дождевые, Cu - кучевые, Cb - кучево-дождевые. Подробнее классификацию облаков см. в Атласе облаков (PDF).
T - Температура воздуха - температура, измеренная на высоте 2 м над землей.
Td - Температура точки росы - температура, при понижении до которой содержащийся в воздухе водяной пар достигнет насыщения.
f - Относительная влажность воздуха - влажноcть воздуха, измеренная на высоте 2 м над землей.
Te - Эффективная температура - температура, которую ощущает одетый по сезону человек в тени. Характеристика душности погоды. При расчете учитывается влияние влажности воздуха и скорости ветра на теплоощущения человека.
Tes - Эффективная температура на солнце - температура, которую ощущает человек, с поправкой на солнечный нагрев. Характеристика знойности погоды. Зависит от высоты солнца над горизонтом, облачности и скорости ветра. Ночью, в пасмурную погоду, а также при ветре 12 м/с и более поправка равна нулю.
P - Атмосферное давление - приведенное к уровню моря атмосферное давление.
Po - Атмосферное давление - измеренное на уровне метеостанции атмосферное давление.
Tmin - Минимальная температура - минимум температуры воздуха на высоте 2 м над землей.
Tmax - Максимальная температура - максимум температуры воздуха на высоте 2 м над землей.
R - Количество осадков - Количество выпавших осадков за период времени, мм. При наведении курсора мыши на число - период времени, за который выпало указанное количество осадков.
R24 - Количество осадков - Количество выпавших осадков за 24 часа, мм.
S - Снежный покров - Высота снежного покрова, см. При наведении курсора мыши на число - состояние снежного покрова и степень покрытия местности в баллах.